METEOSAT-10 (MSG-3)

Last updated on Jan. 18, 2020, 4:37 a.m. UTC

1 38552U 12035B   20017.80536976  .00000059  00000-0  00000+0 0  9991
2 38552   1.0179 357.0507 0000592 279.9068 139.3127  1.00265848 27736
UTC
Height (km)
Latitude
Longitude
Inclination
Orbital Period
UTC large
Height (km)
Speed (km/s)
/
Latitude / Longitude
Inclination (degrees)
Orbital Period (minutes)
Azimuth
Elevation
Range (km)
Doppler Factor
iOS Compass Heading
iOS Angle

Next 30 passes for location: Hong Kong

Rise time Rise Azimuth (degrees) Set time Set Azimuth (degrees) Duration Max altitude (degrees)

No matching passes for this satellites